Duncan, OK

9:46 PM CDT on March 27, 2017 (GMT -0500)
Halliburton

Weather History for KDUC - November, 2012

Change the Weather History Date:

Monday, November 5, 2012

  Actual Average (KLAW) Record (KLAW)
Temperature  
Mean Temperature 58 °F -  
Max Temperature 71 °F 66 °F 84 °F (2008)
Min Temperature 44 °F 39 °F 27 °F (1951)
Degree Days  
Heating Degree Days 8    
Growing Degree Days 8 (Base 50)    
Moisture  
Dew Point 39 °F    
Average Humidity 56    
Maximum Humidity 87    
Minimum Humidity 25    
Precipitation  
Precipitation 0.00 in - - ()
Sea Level Pressure  
Sea Level Pressure 30.09 in    
Wind  
Wind Speed 5 mph (North)    
Max Wind Speed 22 mph    
Max Gust Speed 30 mph    
Visibility 10 miles    
Events      
Averages and records for this station are not official NWS values.
T = Trace of Precipitation, MM = Missing Value Source: NWS Daily Summary

Daily Weather History Graph

Daily Weather History Graph

Search for Another Location

Airport or City:

Trip Planner

Search our weather history database for the weather conditions in past years. The results will help you decide how hot, cold, wet, or windy it might be!

Date:

Astronomy

Nov. 05, 2012 Rise Set
Actual Time 6:56 AM CST 5:34 PM CST
Civil Twilight 6:29 AM CST 6:00 PM CST
Nautical Twilight 6:00 AM CST 6:30 PM CST
Astronomical Twilight 5:30 AM CST 6:59 PM CST
Moon 11:12 PM CST (11/5) 12:15 PM CST (11/5)
Length of Visible Light 11h 30m
Length of Day
10h 37m
Waning Gibbous, 62% of the Moon is Illuminated
Nov 5
Waning Gibbous
Nov 6
Last Quarter
Nov 13
New
Nov 20
First Quarter
Nov 28
Full

Hourly Weather History & Observations

Time (CST) Temp. Windchill Dew Point Humidity Pressure Visibility Wind Dir Wind Speed Gust Speed Precip Events Conditions
12:15 AM 44.6 °F - 41.0 °F 87% 30.08 in 10.0 mi Calm Calm - N/A   Clear
12:35 AM 44.6 °F - 41.0 °F 87% 30.09 in 10.0 mi Calm Calm - N/A   Clear
12:55 AM 46.4 °F - 41.0 °F 81% 30.08 in 10.0 mi Calm Calm - N/A   Clear
1:15 AM 46.4 °F - 41.0 °F 81% 30.08 in 10.0 mi Calm Calm - N/A   Clear
1:35 AM 44.6 °F - 41.0 °F 87% 30.08 in 10.0 mi Calm Calm - N/A   Clear
1:55 AM 44.6 °F - 41.0 °F 87% 30.07 in 10.0 mi Calm Calm - N/A   Clear
2:15 AM 44.6 °F - 41.0 °F 87% 30.07 in 10.0 mi Calm Calm - N/A   Clear
2:35 AM 44.6 °F - 41.0 °F 87% 30.07 in 10.0 mi Calm Calm - N/A   Clear
2:55 AM 46.4 °F - 42.8 °F 87% 30.07 in 10.0 mi Calm Calm - N/A   Clear
3:15 AM 46.4 °F - 42.8 °F 87% 30.07 in 10.0 mi Calm Calm - N/A   Clear
3:35 AM 46.4 °F - 42.8 °F 87% 30.07 in 10.0 mi Calm Calm - N/A   Clear
3:55 AM 46.4 °F - 42.8 °F 87% 30.07 in 10.0 mi Calm Calm - N/A   Clear
4:15 AM 46.4 °F - 42.8 °F 87% 30.07 in 10.0 mi Calm Calm - N/A   Clear
4:35 AM 48.2 °F - 42.8 °F 82% 30.07 in 10.0 mi WNW 3.5 mph - N/A   Clear
4:55 AM 50.0 °F - 42.8 °F 76% 30.07 in 10.0 mi Calm Calm - N/A   Clear
5:15 AM 51.8 °F - 42.8 °F 71% 30.07 in 10.0 mi NNW 3.5 mph - N/A   Clear
5:35 AM 51.8 °F - 41.0 °F 67% 30.07 in 10.0 mi NW 3.5 mph - N/A   Clear
5:55 AM 50.0 °F - 42.8 °F 76% 30.07 in 10.0 mi NNW 8.1 mph - N/A   Clear
6:15 AM 51.8 °F - 41.0 °F 67% 30.08 in 10.0 mi NNW 5.8 mph - N/A   Clear
6:35 AM 51.8 °F - 41.0 °F 67% 30.07 in 10.0 mi NW 4.6 mph - N/A   Clear
6:55 AM 50.0 °F - 41.0 °F 71% 30.07 in 10.0 mi NW 3.5 mph - N/A   Clear
7:15 AM 51.8 °F - 42.8 °F 71% 30.08 in 10.0 mi NNW 8.1 mph - N/A   Clear
7:35 AM 55.4 °F - 41.0 °F 58% 30.09 in 10.0 mi NNW 10.4 mph - N/A   Clear
7:55 AM 55.4 °F - 41.0 °F 58% 30.09 in 10.0 mi North 9.2 mph - N/A   Clear
8:15 AM 57.2 °F - 41.0 °F 55% 30.10 in 10.0 mi North 8.1 mph - N/A   Clear
8:35 AM 59.0 °F - 41.0 °F 51% 30.10 in 10.0 mi North 10.4 mph - N/A   Clear
8:55 AM 60.8 °F - 41.0 °F 48% 30.11 in 10.0 mi North 8.1 mph 16.1 mph N/A   Clear
9:15 AM 60.8 °F - 41.0 °F 48% 30.12 in 10.0 mi North 10.4 mph 16.1 mph N/A   Clear
9:35 AM 64.4 °F - 41.0 °F 42% 30.12 in 10.0 mi North 15.0 mph 19.6 mph N/A   Clear
9:55 AM 64.4 °F - 41.0 °F 42% 30.12 in 10.0 mi North 18.4 mph 23.0 mph N/A   Clear
10:15 AM 64.4 °F - 41.0 °F 42% 30.12 in 10.0 mi North 12.7 mph 18.4 mph N/A   Clear
10:35 AM 64.4 °F - 39.2 °F 40% 30.12 in 10.0 mi NNW 8.1 mph - N/A   Clear
10:55 AM 66.2 °F - 41.0 °F 40% 30.12 in 10.0 mi North 17.3 mph 20.7 mph N/A   Clear
11:15 AM 68.0 °F - 41.0 °F 37% 30.12 in 10.0 mi North 16.1 mph 25.3 mph N/A   Clear
11:35 AM 66.2 °F - 41.0 °F 40% 30.11 in 10.0 mi NNW 13.8 mph 23.0 mph N/A   Clear
11:55 AM 69.8 °F - 41.0 °F 35% 30.10 in 10.0 mi North 15.0 mph 25.3 mph N/A   Clear
12:15 PM 71.6 °F - 37.4 °F 29% 30.10 in 10.0 mi North 17.3 mph 27.6 mph N/A   Clear
12:35 PM 71.6 °F - 35.6 °F 27% 30.09 in 10.0 mi North 19.6 mph 28.8 mph N/A   Clear
12:55 PM 71.6 °F - 33.8 °F 25% 30.08 in 10.0 mi North 18.4 mph 23.0 mph N/A   Clear
1:15 PM 71.6 °F - 35.6 °F 27% 30.07 in 10.0 mi North 18.4 mph 25.3 mph N/A   Clear
1:35 PM 71.6 °F - 35.6 °F 27% 30.07 in 10.0 mi North 16.1 mph 19.6 mph N/A   Clear
1:55 PM 69.8 °F - 35.6 °F 28% 30.07 in 10.0 mi North 20.7 mph 27.6 mph N/A   Clear
2:15 PM 69.8 °F - 35.6 °F 28% 30.07 in 10.0 mi NNW 21.9 mph 29.9 mph N/A   Clear
2:35 PM 69.8 °F - 33.8 °F 27% 30.06 in 10.0 mi NNW 13.8 mph 29.9 mph N/A   Clear
2:55 PM 69.8 °F - 33.8 °F 27% 30.06 in 10.0 mi North 17.3 mph 25.3 mph N/A   Clear
3:15 PM 69.8 °F - 33.8 °F 27% 30.06 in 10.0 mi North 13.8 mph 26.5 mph N/A   Clear
3:35 PM 69.8 °F - 33.8 °F 27% 30.07 in 10.0 mi North 17.3 mph 23.0 mph N/A   Clear
3:55 PM 69.8 °F - 33.8 °F 27% 30.07 in 10.0 mi NNW 13.8 mph 23.0 mph N/A   Clear
4:15 PM 68.0 °F - 33.8 °F 28% 30.07 in 10.0 mi North 13.8 mph 20.7 mph N/A   Clear
4:35 PM 68.0 °F - 33.8 °F 28% 30.07 in 10.0 mi North 17.3 mph 20.7 mph N/A   Clear
4:55 PM 66.2 °F - 33.8 °F 30% 30.07 in 10.0 mi North 13.8 mph - N/A   Clear
5:15 PM 64.4 °F - 33.8 °F 32% 30.07 in 10.0 mi North 9.2 mph 17.3 mph N/A   Clear
5:35 PM 62.6 °F - 33.8 °F 34% 30.08 in 10.0 mi North 8.1 mph - N/A   Clear
5:55 PM 60.8 °F - 33.8 °F 36% 30.08 in 10.0 mi NNE 8.1 mph - N/A   Clear
6:15 PM 59.0 °F - 32.0 °F 36% 30.09 in 10.0 mi NNE 8.1 mph - N/A   Clear
6:35 PM 59.0 °F - 35.6 °F 42% 30.10 in 10.0 mi NNE 10.4 mph - N/A   Clear
6:55 PM 57.2 °F - 35.6 °F 44% 30.11 in 10.0 mi NE 5.8 mph - N/A   Clear
7:15 PM 55.4 °F - 37.4 °F 51% 30.12 in 10.0 mi NNE 6.9 mph - N/A   Clear
7:35 PM 53.6 °F - 37.4 °F 54% 30.11 in 10.0 mi NE 4.6 mph - N/A   Clear
7:55 PM 53.6 °F - 37.4 °F 54% 30.10 in 10.0 mi NE 3.5 mph - N/A   Clear
8:15 PM 51.8 °F - 37.4 °F 58% 30.11 in 10.0 mi Calm Calm - N/A   Clear
8:35 PM 51.8 °F - 37.4 °F 58% 30.11 in 10.0 mi Calm Calm - N/A   Clear
8:55 PM 51.8 °F - 39.2 °F 62% 30.12 in 10.0 mi Calm Calm - N/A   Clear
9:15 PM 51.8 °F - 39.2 °F 62% 30.12 in 10.0 mi North 3.5 mph - N/A   Clear
9:35 PM 50.0 °F - 39.2 °F 66% 30.13 in 10.0 mi Calm Calm - N/A   Clear
9:55 PM 48.2 °F - 39.2 °F 71% 30.13 in 10.0 mi Calm Calm - N/A   Clear
10:15 PM 46.4 °F - 37.4 °F 71% 30.14 in 10.0 mi Calm Calm - N/A   Clear
10:35 PM 50.0 °F - 39.2 °F 66% 30.13 in 10.0 mi Calm Calm - N/A   Clear
10:55 PM 48.2 °F - 39.2 °F 71% 30.12 in 10.0 mi Calm Calm - N/A   Clear
11:15 PM 44.6 °F - 37.4 °F 76% 30.13 in 10.0 mi Calm Calm - N/A   Clear
11:35 PM 46.4 °F - 39.2 °F 76% 30.12 in 10.0 mi Calm Calm - N/A   Clear
11:55 PM 44.6 °F 42.2 °F 37.4 °F 76% 30.12 in 10.0 mi East 4.6 mph - N/A   Clear